Regional Weather Roundup
Issued by NWS

Home | Current Version | Previous Version | Graphics & Text | Print | Product List | Glossary On
Versions: 1 2 3 4 5 6 7 8 9 10 11 12 13 14 15 16 17 18 19 20 21 22 23 24 25 26 27 28 29 30 31 32 33 34 35 36 37 38 39 40 41 42 43 44 45
682
ASUS44 KJAN 051110
RWRMS

MISSISSIPPI HOURLY WEATHER ROUNDUP
NATIONAL WEATHER SERVICE JACKSON MS
500 AM CST THU MAR 05 2015

NOTE: "FAIR: INDICATES FEW OR NO CLOUDS BELOW 12,000 FEET WITH NO
SIGNIFICANT WEATHER AND/OR OBSTRUCTIONS TO VISIBILITY.

MSZ001>002-007>008-010>013-018>021-025>028-034>036-051200-
NORTHWEST MISSISSIPPI

CITY           SKY/WX    TMP DP  RH WIND       PRES   REMARKS
CLARKSDALE       N/A     23  23 100 CALM      30.31R
CLEVELAND      CLOUDY    25  23  93 N24G35    30.27R WCI   9
GREENWOOD      CLOUDY    27  24  89 N12G24    30.22R FOG     WCI  17
GREENVILLE     MIX PCPN  26  22  84 MISG      30.27R FOG
OLIVE BRANCH   CLOUDY    19  19 100 CALM      30.28R
OXFORD         CLOUDY    21  18  86 N13G25    30.26R FOG     WCI   9
TUNICA         LGT SNOW  23  21  93 N10       30.34R WCI  12
$$

MSZ003>006-009-014>017-022>024-029>033-037>039-051200-
NORTHEAST MISSISSIPPI

CITY           SKY/WX    TMP DP  RH WIND       PRES   REMARKS
COLUMBUS AFB   FRZ RAIN  32  30  93 N18G26    30.10F WCI  20
CORINTH        RAIN      25  19  80 N12G24    30.20S WCI  14
GOLDN TRIANGLE CLOUDY    32  28  86 N15       30.09R WCI  22
STARKVILLE     LGT SNOW  32  30  93 CALM      30.11S
TUPELO         LGT SNOW  27  24  89 N17G26    30.18S FOG     WCI  14
$$

MSZ040-058-051200-
CENTRAL MISSISSIPPI

CITY           SKY/WX    TMP DP  RH WIND       PRES   REMARKS
JACKSON INTL   LGT RAIN  34  32  92 NW20G25   30.14R WCI  23
JACKSON HAWKNS MIX PCPN  32  29  88 NW10G23   30.17R FOG     WCI  24
MERIDIAN KEY   LGT RAIN  38  37  97 N21       30.06R FOG     WCI  28
MERIDIAN NAS   CLOUDY    38  35  89 N15       30.08R WCI  29
VICKSBURG      MIX PCPN  33  30  88 N17G23    30.23R WCI  22
$$

MSZ059>079-051200-
SOUTH MISSISSIPPI

CITY           SKY/WX    TMP DP  RH WIND       PRES   REMARKS
BROOKHAVEN     MIX PCPN  36  36 100 NW18      30.12R WCI  25
HATTIESBURG    CLOUDY    52  49  89 NW14      30.00R
MCCOMB         LGT RAIN  39  37  92 N17G24    30.07R WCI  30
NATCHEZ        NOT AVBL
PINE BELT      CLOUDY    46  43  87 NW12G21   30.02R
$$

MSZ080>082-051200-
COASTAL MISSISSIPPI

CITY           SKY/WX    TMP DP  RH WIND       PRES   REMARKS
BILOXI         FOG       65  65 100 SW9       29.92R VSB 1/2
PASCAGOULA     CLOUDY    67  67 100 S6        29.93S FOG
GULFPORT       CLOUDY    68  67  96 SW6       29.93R FOG
$$



USA.gov is the U.S. government's official web portal to all federal, state and local government web resources and services.